CEB247 RPLL-RPVA

Flight info

Callsign CEB247
Flight time 0h 57m
Altitude 37000
Route IPATA2V IPATA B462 ARREX ARREX2R
Aircraft A320/M-SDE3FGHIRWY/LB1

Departure

Time 2026-04-24 15:52
Airport Ninoy Aquino International Airport (RPLL)

Arrival

Time 2026-04-24 16:49
Airport Daniel Z. Romualdez Airport (RPVA)
Time Latitude Longitude Altitude Speed Heading
2026-04-24 15:07 14.51701 121.01657 65 ft 0 kts 226°
2026-04-24 15:40 14.51707 121.01664 60 ft 4 kts 225°
2026-04-24 15:40 14.51727 121.01682 61 ft 4 kts 218°
2026-04-24 15:40 14.51749 121.01697 63 ft 4 kts 199°
2026-04-24 15:40 14.51771 121.01699 66 ft 3 kts 139°
2026-04-24 15:41 14.51777 121.01694 59 ft 0 kts 135°
2026-04-24 15:45 14.51752 121.01719 62 ft 6 kts 135°
2026-04-24 15:45 14.51719 121.01755 64 ft 11 kts 135°
2026-04-24 15:45 14.51647 121.01783 60 ft 12 kts 191°
2026-04-24 15:46 14.51585 121.01735 65 ft 11 kts 225°
2026-04-24 15:46 14.51535 121.01685 65 ft 9 kts 224°
2026-04-24 15:46 14.51473 121.01622 60 ft 16 kts 226°
2026-04-24 15:46 14.51498 121.01547 59 ft 11 kts 313°
2026-04-24 15:47 14.51547 121.01495 61 ft 10 kts 316°
2026-04-24 15:47 14.51601 121.01440 62 ft 15 kts 314°
2026-04-24 15:47 14.51678 121.01360 67 ft 15 kts 315°
2026-04-24 15:47 14.51749 121.01288 63 ft 15 kts 315°
2026-04-24 15:48 14.51844 121.01189 66 ft 21 kts 314°
2026-04-24 15:48 14.51951 121.01078 63 ft 23 kts 315°
2026-04-24 15:48 14.52067 121.00959 59 ft 24 kts 315°
2026-04-24 15:48 14.52192 121.00831 66 ft 26 kts 315°
2026-04-24 15:49 14.52296 121.00724 63 ft 21 kts 314°
2026-04-24 15:49 14.52404 121.00613 64 ft 23 kts 315°
2026-04-24 15:49 14.52491 121.00507 67 ft 11 kts 265°
2026-04-24 15:49 14.52445 121.00449 66 ft 12 kts 229°
2026-04-24 15:50 14.52367 121.00404 61 ft 12 kts 143°
2026-04-24 15:50 14.52324 121.00442 63 ft 0 kts 136°
2026-04-24 15:51 14.52316 121.00449 63 ft 8 kts 136°
2026-04-24 15:51 14.52143 121.00628 61 ft 73 kts 135°
2026-04-24 15:51 14.51619 121.01172 69 ft 136 kts 135°
2026-04-24 15:51 14.50884 121.01927 554 ft 149 kts 135°
2026-04-24 15:52 14.50154 121.02680 1296 ft 148 kts 134°
2026-04-24 15:52 14.49426 121.03436 1951 ft 151 kts 133°
2026-04-24 15:52 14.48640 121.04252 2313 ft 172 kts 133°
2026-04-24 15:52 14.47741 121.05186 2667 ft 194 kts 133°
2026-04-24 15:53 14.46729 121.06237 3000 ft 219 kts 134°
2026-04-24 15:53 14.45595 121.07412 3408 ft 243 kts 134°
2026-04-24 15:53 14.44342 121.08708 3892 ft 265 kts 134°
2026-04-24 15:53 14.43076 121.10127 4721 ft 271 kts 126°
2026-04-24 15:54 14.42039 121.11763 5656 ft 274 kts 121°
2026-04-24 15:54 14.41021 121.13407 6545 ft 278 kts 122°
2026-04-24 15:54 14.39968 121.15102 7372 ft 283 kts 122°
2026-04-24 15:54 14.38893 121.16826 8177 ft 289 kts 122°
2026-04-24 15:55 14.37796 121.18586 8967 ft 295 kts 123°
2026-04-24 15:55 14.36670 121.20390 9753 ft 302 kts 123°
2026-04-24 15:55 14.35521 121.22233 10377 ft 313 kts 123°
2026-04-24 15:55 14.34298 121.24191 10676 ft 335 kts 123°
2026-04-24 15:56 14.33016 121.26246 10976 ft 344 kts 123°
2026-04-24 15:56 14.31712 121.28337 11305 ft 349 kts 124°
2026-04-24 15:56 14.30399 121.30446 12134 ft 350 kts 123°
2026-04-24 15:56 14.29084 121.32561 12937 ft 351 kts 123°
2026-04-24 15:57 14.27765 121.34684 13718 ft 352 kts 124°
2026-04-24 15:57 14.26440 121.36816 14362 ft 355 kts 123°
2026-04-24 15:57 14.25554 121.38239 14764 ft 357 kts 124°
2026-04-24 15:57 14.23749 121.41139 15533 ft 362 kts 123°
2026-04-24 15:58 14.22374 121.43343 16092 ft 367 kts 123°
2026-04-24 15:58 14.20989 121.45559 16658 ft 371 kts 123°
2026-04-24 15:58 14.19582 121.47805 17210 ft 375 kts 123°
2026-04-24 15:58 14.18162 121.50074 17771 ft 379 kts 123°
2026-04-24 15:59 14.16728 121.52370 18305 ft 383 kts 123°
2026-04-24 15:59 14.15277 121.54692 18785 ft 386 kts 123°
2026-04-24 15:59 14.13821 121.57019 19271 ft 389 kts 124°
2026-04-24 15:59 14.12349 121.59370 19768 ft 391 kts 123°
2026-04-24 16:00 14.10886 121.61698 20261 ft 393 kts 125°
2026-04-24 16:00 14.09169 121.63892 20746 ft 394 kts 136°
2026-04-24 16:00 14.07091 121.65729 21229 ft 395 kts 145°
2026-04-24 16:00 14.04878 121.67414 21734 ft 397 kts 145°
2026-04-24 16:01 14.02650 121.69104 22221 ft 399 kts 145°
2026-04-24 16:01 14.00406 121.70807 22675 ft 402 kts 144°
2026-04-24 16:01 13.98155 121.72518 23165 ft 404 kts 144°
2026-04-24 16:01 13.95885 121.74246 23612 ft 406 kts 144°
2026-04-24 16:02 13.93612 121.75976 23989 ft 409 kts 144°
2026-04-24 16:02 13.91316 121.77727 24359 ft 411 kts 144°
2026-04-24 16:02 13.89010 121.79488 24726 ft 414 kts 144°
2026-04-24 16:02 13.86752 121.81341 25087 ft 417 kts 137°
2026-04-24 16:03 13.84780 121.83548 25437 ft 421 kts 131°
2026-04-24 16:03 13.82895 121.85866 25792 ft 424 kts 131°
2026-04-24 16:03 13.80992 121.88202 26145 ft 427 kts 131°
2026-04-24 16:03 13.79099 121.90521 26488 ft 429 kts 131°
2026-04-24 16:04 13.77172 121.92883 26831 ft 432 kts 131°
2026-04-24 16:04 13.75234 121.95260 27164 ft 435 kts 131°
2026-04-24 16:04 13.73945 121.96840 27395 ft 437 kts 131°
2026-04-24 16:04 13.71313 122.00052 27824 ft 440 kts 131°
2026-04-24 16:05 13.67341 122.04897 28476 ft 446 kts 131°
2026-04-24 16:05 13.65337 122.07352 28802 ft 448 kts 131°
2026-04-24 16:06 13.61991 122.11455 29313 ft 453 kts 131°
2026-04-24 16:06 13.59955 122.13945 29637 ft 455 kts 131°
2026-04-24 16:06 13.55852 122.18956 30216 ft 461 kts 131°
2026-04-24 16:07 13.53808 122.21453 30474 ft 463 kts 131°
2026-04-24 16:07 13.51730 122.23992 30739 ft 464 kts 131°
2026-04-24 16:07 13.47542 122.29105 31268 ft 468 kts 131°
2026-04-24 16:08 13.45440 122.31668 31531 ft 470 kts 132°
2026-04-24 16:08 13.41252 122.36772 32214 ft 468 kts 132°
2026-04-24 16:09 13.37064 122.41883 32970 ft 466 kts 133°
2026-04-24 16:09 13.34973 122.44428 33345 ft 465 kts 133°
2026-04-24 16:09 13.32883 122.46967 33721 ft 464 kts 133°
2026-04-24 16:09 13.30829 122.49465 34083 ft 463 kts 133°
2026-04-24 16:10 13.24592 122.57054 34993 ft 462 kts 133°
2026-04-24 16:11 13.20476 122.62061 35578 ft 460 kts 133°
2026-04-24 16:11 13.18412 122.64570 35857 ft 460 kts 133°
2026-04-24 16:11 13.16350 122.67078 36151 ft 459 kts 133°
2026-04-24 16:12 13.12226 122.72087 36685 ft 458 kts 133°
2026-04-24 16:12 13.10172 122.74581 36912 ft 458 kts 133°
2026-04-24 16:13 13.04056 122.82003 36975 ft 453 kts 133°
2026-04-24 16:14 12.95907 122.91869 36972 ft 452 kts 133°
2026-04-24 16:14 12.89826 122.99232 36971 ft 452 kts 133°
2026-04-24 16:15 12.83733 123.06610 36968 ft 452 kts 133°
2026-04-24 16:16 12.77626 123.13987 36968 ft 452 kts 133°
2026-04-24 16:17 12.71542 123.21335 36723 ft 454 kts 133°
2026-04-24 16:17 12.67365 123.26376 34926 ft 466 kts 133°
2026-04-24 16:18 12.63217 123.31385 33856 ft 459 kts 133°
2026-04-24 16:18 12.59118 123.36327 32705 ft 452 kts 132°
2026-04-24 16:18 12.57087 123.38776 32133 ft 449 kts 132°
2026-04-24 16:19 12.53078 123.43615 31042 ft 443 kts 131°
2026-04-24 16:19 12.51089 123.46010 30502 ft 441 kts 131°
2026-04-24 16:20 12.47138 123.50767 29395 ft 434 kts 131°
2026-04-24 16:20 12.43275 123.55409 28405 ft 418 kts 131°
2026-04-24 16:20 12.41406 123.57657 27922 ft 412 kts 131°
2026-04-24 16:21 12.37729 123.62084 26992 ft 403 kts 131°
2026-04-24 16:21 12.35924 123.64258 26548 ft 399 kts 131°
2026-04-24 16:21 12.34176 123.66398 26119 ft 395 kts 130°
2026-04-24 16:22 12.32433 123.68555 25673 ft 391 kts 130°
2026-04-24 16:22 12.29010 123.72808 24776 ft 384 kts 129°
2026-04-24 16:22 12.27320 123.74905 24312 ft 381 kts 129°
2026-04-24 16:23 12.25632 123.76996 23847 ft 379 kts 129°
2026-04-24 16:23 12.23949 123.79075 23343 ft 378 kts 130°
2026-04-24 16:23 12.22271 123.81138 22845 ft 375 kts 130°
2026-04-24 16:24 12.18985 123.85176 21934 ft 368 kts 130°
2026-04-24 16:24 12.17355 123.87185 21470 ft 365 kts 129°
2026-04-24 16:24 12.15755 123.89162 21039 ft 356 kts 129°
2026-04-24 16:24 12.14191 123.91095 20612 ft 348 kts 129°
2026-04-24 16:25 12.12665 123.92980 20195 ft 340 kts 129°
2026-04-24 16:25 12.11170 123.94821 19787 ft 334 kts 129°
2026-04-24 16:25 12.09683 123.96651 19381 ft 334 kts 129°
2026-04-24 16:26 12.06732 124.00281 18580 ft 334 kts 129°
2026-04-24 16:26 12.05241 124.02115 18165 ft 335 kts 129°
2026-04-24 16:26 12.02273 124.05768 17328 ft 333 kts 129°
2026-04-24 16:27 12.00796 124.07585 16918 ft 331 kts 129°
2026-04-24 16:27 11.99327 124.09393 16537 ft 330 kts 129°
2026-04-24 16:27 11.97862 124.11196 16147 ft 330 kts 129°
2026-04-24 16:27 11.96399 124.12993 15754 ft 329 kts 129°
2026-04-24 16:28 11.94939 124.14790 15377 ft 328 kts 129°
2026-04-24 16:28 11.93483 124.16583 14991 ft 328 kts 129°
2026-04-24 16:28 11.90570 124.20161 14220 ft 327 kts 129°
2026-04-24 16:29 11.89115 124.21951 13826 ft 327 kts 129°
2026-04-24 16:29 11.87664 124.23735 13401 ft 326 kts 129°
2026-04-24 16:29 11.84798 124.27253 12770 ft 314 kts 129°
2026-04-24 16:30 11.82052 124.30624 12448 ft 309 kts 129°
2026-04-24 16:30 11.80678 124.32310 12256 ft 307 kts 129°
2026-04-24 16:30 11.79316 124.33982 12096 ft 307 kts 129°
2026-04-24 16:31 11.77956 124.35649 11907 ft 305 kts 129°
2026-04-24 16:31 11.76603 124.37306 11739 ft 304 kts 129°
2026-04-24 16:31 11.75254 124.38960 11556 ft 302 kts 129°
2026-04-24 16:31 11.73914 124.40603 11389 ft 301 kts 129°
2026-04-24 16:32 11.73009 124.41713 11268 ft 301 kts 129°
2026-04-24 16:32 11.71240 124.43881 11043 ft 301 kts 129°
2026-04-24 16:32 11.69903 124.45523 10889 ft 300 kts 129°
2026-04-24 16:32 11.68576 124.47155 10730 ft 299 kts 129°
2026-04-24 16:33 11.67249 124.48784 10551 ft 298 kts 128°
2026-04-24 16:33 11.65928 124.50402 10386 ft 297 kts 129°
2026-04-24 16:33 11.64606 124.52021 10212 ft 296 kts 129°
2026-04-24 16:33 11.63291 124.53627 10039 ft 293 kts 129°
2026-04-24 16:34 11.61996 124.55209 9874 ft 289 kts 128°
2026-04-24 16:34 11.60708 124.56779 9716 ft 288 kts 129°
2026-04-24 16:34 11.59433 124.58336 9523 ft 285 kts 128°
2026-04-24 16:34 11.58165 124.59886 9365 ft 285 kts 129°
2026-04-24 16:35 11.56898 124.61436 9200 ft 283 kts 129°
2026-04-24 16:35 11.55634 124.62986 9040 ft 285 kts 128°
2026-04-24 16:35 11.54369 124.64538 8872 ft 283 kts 128°
2026-04-24 16:35 11.53113 124.66077 8710 ft 282 kts 128°
2026-04-24 16:36 11.51863 124.67611 8543 ft 279 kts 128°
2026-04-24 16:36 11.50626 124.69126 8385 ft 279 kts 129°
2026-04-24 16:36 11.49203 124.70482 8223 ft 281 kts 143°
2026-04-24 16:36 11.47589 124.71597 8092 ft 281 kts 144°
2026-04-24 16:37 11.45965 124.72718 7976 ft 282 kts 144°
2026-04-24 16:37 11.44353 124.73835 7856 ft 280 kts 143°
2026-04-24 16:37 11.43288 124.74573 7622 ft 278 kts 143°
2026-04-24 16:37 11.41152 124.76056 7092 ft 277 kts 143°
2026-04-24 16:38 11.39571 124.77152 6714 ft 275 kts 143°
2026-04-24 16:38 11.37998 124.78244 6465 ft 272 kts 143°
2026-04-24 16:38 11.36422 124.79336 6348 ft 274 kts 143°
2026-04-24 16:38 11.34847 124.80426 6227 ft 274 kts 143°
2026-04-24 16:39 11.33271 124.81519 6081 ft 274 kts 144°
2026-04-24 16:39 11.31706 124.82602 5996 ft 272 kts 143°
2026-04-24 16:39 11.30160 124.83673 6010 ft 272 kts 143°
2026-04-24 16:39 11.28616 124.84743 6010 ft 264 kts 143°
2026-04-24 16:40 11.27093 124.85782 6010 ft 263 kts 147°
2026-04-24 16:40 11.25409 124.86513 5972 ft 266 kts 162°
2026-04-24 16:40 11.23603 124.86922 5847 ft 266 kts 165°
2026-04-24 16:40 11.21799 124.87320 5725 ft 265 kts 165°
2026-04-24 16:41 11.19996 124.87721 5604 ft 264 kts 165°
2026-04-24 16:41 11.18201 124.88122 5376 ft 264 kts 165°
2026-04-24 16:41 11.16415 124.88518 5036 ft 262 kts 165°
2026-04-24 16:41 11.14649 124.88909 4624 ft 257 kts 165°
2026-04-24 16:42 11.12911 124.89294 4000 ft 255 kts 164°
2026-04-24 16:42 11.11177 124.89681 3435 ft 256 kts 164°
2026-04-24 16:42 11.09448 124.90067 3083 ft 253 kts 164°
2026-04-24 16:42 11.07737 124.90448 2703 ft 251 kts 164°
2026-04-24 16:43 11.06072 124.90911 2505 ft 245 kts 152°
2026-04-24 16:43 11.04718 124.91901 2503 ft 233 kts 129°
2026-04-24 16:43 11.03901 124.93231 2506 ft 213 kts 109°
2026-04-24 16:43 11.03608 124.94663 2511 ft 205 kts 93°
2026-04-24 16:44 11.03519 124.96108 2513 ft 204 kts 93°
2026-04-24 16:44 11.03428 124.97530 2512 ft 196 kts 93°
2026-04-24 16:44 11.03341 124.98876 2507 ft 187 kts 93°
2026-04-24 16:44 11.03435 125.00172 2501 ft 184 kts 69°
2026-04-24 16:45 11.04194 125.01212 2497 ft 188 kts 38°
2026-04-24 16:45 11.05434 125.01639 2376 ft 194 kts
2026-04-24 16:45 11.06777 125.01716 2250 ft 194 kts
2026-04-24 16:45 11.08126 125.01800 2133 ft 194 kts
2026-04-24 16:46 11.09467 125.01886 2044 ft 190 kts
2026-04-24 16:46 11.10752 125.01969 1927 ft 180 kts
2026-04-24 16:46 11.11966 125.02047 1815 ft 170 kts
2026-04-24 16:46 11.13115 125.02122 1717 ft 161 kts
2026-04-24 16:47 11.14206 125.02192 1531 ft 155 kts
2026-04-24 16:47 11.15261 125.02262 1335 ft 148 kts
2026-04-24 16:47 11.16245 125.02327 1150 ft 141 kts
2026-04-24 16:47 11.17215 125.02394 966 ft 139 kts
2026-04-24 16:48 11.18179 125.02465 728 ft 139 kts
2026-04-24 16:48 11.19143 125.02544 486 ft 139 kts
2026-04-24 16:48 11.20103 125.02589 362 ft 139 kts
2026-04-24 16:48 11.21068 125.02667 190 ft 139 kts
2026-04-24 16:49 11.22025 125.02724 19 ft 134 kts
2026-04-24 16:49 11.22728 125.02773 12 ft 59 kts
2026-04-24 16:49 11.22963 125.02788 11 ft 29 kts
2026-04-24 16:49 11.23169 125.02802 12 ft 30 kts
2026-04-24 16:50 11.23311 125.02811 11 ft 31 kts
2026-04-24 16:50 11.23599 125.02829 14 ft 24 kts
2026-04-24 16:50 11.23702 125.02813 14 ft 12 kts 30°
2026-04-24 16:50 11.23697 125.02833 15 ft 4 kts 167°
2026-04-24 16:51 11.23647 125.02833 14 ft 7 kts 184°
2026-04-24 16:51 11.23570 125.02827 14 ft 17 kts 183°
2026-04-24 16:51 11.23437 125.02819 13 ft 22 kts 183°
2026-04-24 16:51 11.23236 125.02806 10 ft 32 kts 184°
2026-04-24 16:52 11.23011 125.02791 12 ft 33 kts 183°
2026-04-24 16:52 11.22865 125.02782 12 ft 10 kts 184°
2026-04-24 16:52 11.22796 125.02775 11 ft 10 kts 191°
2026-04-24 16:52 11.22755 125.02726 11 ft 8 kts 242°
2026-04-24 16:53 11.22728 125.02692 13 ft 5 kts 191°
2026-04-24 16:53 11.22684 125.02689 12 ft 9 kts 184°
2026-04-24 16:53 11.22646 125.02686 12 ft 8 kts 183°
2026-04-24 16:53 11.22627 125.02671 13 ft 2 kts 297°
2026-04-24 16:54 11.22634 125.02660 14 ft 2 kts 305°
2026-04-24 16:54 11.22639 125.02654 15 ft 2 kts 307°
2026-04-24 16:54 11.22641 125.02651 15 ft 0 kts 307°